Time,TemperatureF,DewpointF,PressureIn,WindDirection,WindDirectionDegrees,WindSpeedMPH,WindSpeedGustMPH,Humidity,HourlyPrecipIn,Conditions,Clouds,dailyrainin,SoftwareType,DateUTC
2013-02-06 00:00:00,28.8,24.9,29.92,WSW,248,2.0,7.0,85,0.00,,,0.00,Wunderground v.1.12,2013-02-06 05:00:00,
2013-02-06 00:10:00,28.8,24.9,29.92,West,277,2.0,2.0,85,0.00,,,0.00,Wunderground v.1.12,2013-02-06 05:10:00,
2013-02-06 00:20:00,28.8,24.9,29.93,WNW,294,2.0,3.0,85,0.00,,,0.00,Wunderground v.1.12,2013-02-06 05:20:00,
2013-02-06 00:30:00,28.8,24.9,29.94,WNW,293,2.0,8.0,85,0.00,,,0.00,Wunderground v.1.12,2013-02-06 05:30:00,
2013-02-06 00:40:00,29.0,25.1,29.94,West,271,2.0,2.0,85,0.00,,,0.00,Wunderground v.1.12,2013-02-06 05:40:00,
2013-02-06 00:50:00,29.0,25.1,29.94,West,270,2.0,7.0,85,0.00,,,0.00,Wunderground v.1.12,2013-02-06 05:50:00,
2013-02-06 01:00:00,29.0,25.1,29.95,WNW,293,2.0,7.0,85,0.00,,,0.00,Wunderground v.1.12,2013-02-06 06:00:00,
2013-02-06 01:10:00,28.8,24.6,29.95,NW,323,2.0,2.0,84,0.00,,,0.00,Wunderground v.1.12,2013-02-06 06:10:00,
2013-02-06 01:20:00,28.7,23.6,29.96,NNW,330,4.0,4.0,81,0.00,,,0.00,Wunderground v.1.12,2013-02-06 06:20:00,
2013-02-06 01:30:00,28.5,22.5,29.97,NNW,338,5.0,11.0,78,0.00,,,0.00,Wunderground v.1.12,2013-02-06 06:30:00,
2013-02-06 01:40:00,28.4,21.8,29.97,NNW,335,5.0,5.0,76,0.00,,,0.00,Wunderground v.1.12,2013-02-06 06:40:00,
2013-02-06 01:50:00,28.4,21.5,29.99,NW,315,4.0,12.0,75,0.00,,,0.00,Wunderground v.1.12,2013-02-06 06:50:00,
2013-02-06 02:00:00,28.4,20.8,29.99,NNW,338,5.0,12.0,73,0.00,,,0.00,Wunderground v.1.12,2013-02-06 07:00:00,
2013-02-06 02:10:00,28.2,20.7,29.99,NNW,340,4.0,8.0,73,0.00,,,0.00,Wunderground v.1.12,2013-02-06 07:10:00,
2013-02-06 02:20:00,28.2,20.7,30.00,NW,315,3.0,13.0,73,0.00,,,0.00,Wunderground v.1.12,2013-02-06 07:20:00,
2013-02-06 02:30:00,28.1,20.6,30.01,NW,315,3.0,11.0,73,0.00,,,0.00,Wunderground v.1.12,2013-02-06 07:30:00,
2013-02-06 02:40:00,27.9,20.0,30.01,NW,322,4.0,4.0,72,0.00,,,0.00,Wunderground v.1.12,2013-02-06 07:40:00,
2013-02-06 02:50:00,27.9,20.0,30.02,NNW,344,4.0,4.0,72,0.00,,,0.00,Wunderground v.1.12,2013-02-06 07:50:00,
2013-02-06 03:00:00,27.8,20.3,30.02,NNW,338,3.0,9.0,73,0.00,,,0.00,Wunderground v.1.12,2013-02-06 08:00:00,
2013-02-06 03:10:00,27.6,20.1,30.02,NW,326,3.0,3.0,73,0.00,,,0.00,Wunderground v.1.12,2013-02-06 08:10:00,
2013-02-06 03:20:00,27.5,20.0,30.03,NW,320,4.0,4.0,73,0.00,,,0.00,Wunderground v.1.12,2013-02-06 08:20:00,
2013-02-06 03:30:00,27.3,19.8,30.04,NNW,338,4.0,11.0,73,0.00,,,0.00,Wunderground v.1.12,2013-02-06 08:30:00,
2013-02-06 03:40:00,27.0,19.2,30.04,North,0,6.0,14.0,72,0.00,,,0.00,Wunderground v.1.12,2013-02-06 08:40:00,
2013-02-06 03:50:00,26.6,18.8,30.05,NNW,338,6.0,17.0,72,0.00,,,0.00,Wunderground v.1.12,2013-02-06 08:50:00,
2013-02-06 04:00:00,26.0,17.6,30.06,NNW,338,6.0,18.0,70,0.00,,,0.00,Wunderground v.1.12,2013-02-06 09:00:00,
2013-02-06 04:10:00,25.7,16.6,30.06,NW,316,4.0,8.0,68,0.00,,,0.00,Wunderground v.1.12,2013-02-06 09:10:00,
2013-02-06 04:20:00,25.1,15.0,30.07,NW,315,5.0,5.0,65,0.00,,,0.00,Wunderground v.1.12,2013-02-06 09:20:00,
2013-02-06 04:30:00,24.4,13.6,30.08,NW,315,3.0,14.0,63,0.00,,,0.00,Wunderground v.1.12,2013-02-06 09:30:00,
2013-02-06 04:40:00,23.6,12.5,30.08,NW,326,3.0,3.0,62,0.00,,,0.00,Wunderground v.1.12,2013-02-06 09:40:00,
2013-02-06 04:50:00,23.0,12.3,30.09,NW,313,4.0,4.0,63,0.00,,,0.00,Wunderground v.1.12,2013-02-06 09:50:00,
2013-02-06 05:00:00,22.9,12.5,30.10,NW,315,3.0,11.0,64,0.00,,,0.00,Wunderground v.1.12,2013-02-06 10:00:00,
2013-02-06 05:10:00,22.7,12.3,30.10,WNW,294,3.0,6.0,64,0.00,,,0.00,Wunderground v.1.12,2013-02-06 10:10:00,
2013-02-06 05:20:00,22.5,12.1,30.11,NNW,332,3.0,3.0,64,0.00,,,0.00,Wunderground v.1.12,2013-02-06 10:20:00,
2013-02-06 05:30:00,22.2,11.5,30.11,North,0,2.0,10.0,63,0.00,,,0.00,Wunderground v.1.12,2013-02-06 10:30:00,
2013-02-06 05:40:00,21.8,11.1,30.11,NW,325,2.0,2.0,63,0.00,,,0.00,Wunderground v.1.12,2013-02-06 10:40:00,
2013-02-06 05:50:00,21.1,10.5,30.12,NNW,344,1.0,1.0,63,0.00,,,0.00,Wunderground v.1.12,2013-02-06 10:50:00,
2013-02-06 06:00:00,20.6,10.3,30.13,NNW,338,0.0,3.0,64,0.00,,,0.00,Wunderground v.1.12,2013-02-06 11:00:00,
2013-02-06 06:10:00,20.2,10.3,30.13,NNW,344,0.0,0.0,65,0.00,,,0.00,Wunderground v.1.12,2013-02-06 11:10:00,
2013-02-06 06:20:00,19.7,9.8,30.14,NNW,344,0.0,0.0,65,0.00,,,0.00,Wunderground v.1.12,2013-02-06 11:20:00,
2013-02-06 06:30:00,19.2,9.7,30.14,N/A,-737280,0.0,0.0,66,0.00,,,0.00,Wunderground v.1.12,2013-02-06 11:30:00,
2013-02-06 06:40:00,18.6,9.5,30.14,NNW,344,0.0,0.0,67,0.00,,,0.00,Wunderground v.1.12,2013-02-06 11:40:00,
2013-02-06 06:50:00,18.0,9.2,30.16,NNW,344,0.0,0.0,68,0.00,,,0.00,Wunderground v.1.12,2013-02-06 11:50:00,
2013-02-06 07:00:00,17.3,9.2,30.17,N/A,-737280,0.0,0.0,70,0.00,,,0.00,Wunderground v.1.12,2013-02-06 12:00:00,
2013-02-06 07:10:00,16.9,9.1,30.17,NNW,344,0.0,0.0,71,0.00,,,0.00,Wunderground v.1.12,2013-02-06 12:10:00,
2013-02-06 07:20:00,16.2,8.8,30.18,NNW,344,0.0,0.0,72,0.00,,,0.00,Wunderground v.1.12,2013-02-06 12:20:00,
2013-02-06 07:30:00,15.9,9.1,30.19,N/A,-737280,0.0,0.0,74,0.00,,,0.00,Wunderground v.1.12,2013-02-06 12:30:00,
2013-02-06 07:40:00,15.6,8.8,30.19,NNW,343,0.0,0.0,74,0.00,,,0.00,Wunderground v.1.12,2013-02-06 12:40:00,
2013-02-06 07:50:00,15.2,8.7,30.20,NNW,344,0.0,0.0,75,0.00,,,0.00,Wunderground v.1.12,2013-02-06 12:50:00,
2013-02-06 08:00:00,14.9,8.7,30.21,N/A,-737280,0.0,0.0,76,0.00,,,0.00,Wunderground v.1.12,2013-02-06 13:00:00,
2013-02-06 08:10:00,14.9,9.3,30.21,NNW,344,0.0,0.0,78,0.00,,,0.00,Wunderground v.1.12,2013-02-06 13:10:00,
2013-02-06 08:20:00,14.9,9.3,30.22,N/A,-737280,0.0,0.0,78,0.00,,,0.00,Wunderground v.1.12,2013-02-06 13:20:00,
2013-02-06 08:30:00,14.9,9.6,30.22,N/A,-737280,0.0,0.0,79,0.00,,,0.00,Wunderground v.1.12,2013-02-06 13:30:00,
2013-02-06 08:40:00,15.6,10.5,30.22,NNW,343,0.0,0.0,80,0.00,,,0.00,Wunderground v.1.12,2013-02-06 13:40:00,
2013-02-06 08:50:00,17.0,12.2,30.23,NNW,343,0.0,0.0,81,0.00,,,0.00,Wunderground v.1.12,2013-02-06 13:50:00,
2013-02-06 09:00:00,18.8,13.7,30.23,N/A,-737280,0.0,0.0,80,0.00,,,0.00,Wunderground v.1.12,2013-02-06 14:00:00,
2013-02-06 09:10:00,20.2,13.8,30.23,NNW,344,0.0,0.0,76,0.00,,,0.00,Wunderground v.1.12,2013-02-06 14:10:00,
2013-02-06 09:20:00,21.6,14.0,30.22,NNW,344,0.0,0.0,72,0.00,,,0.00,Wunderground v.1.12,2013-02-06 14:20:00,
2013-02-06 09:30:00,22.9,13.6,30.23,N/A,-737280,0.0,0.0,67,0.00,,,0.00,Wunderground v.1.12,2013-02-06 14:30:00,
2013-02-06 09:40:00,23.9,13.8,30.23,NNW,343,0.0,0.0,65,0.00,,,0.00,Wunderground v.1.12,2013-02-06 14:40:00,
2013-02-06 09:50:00,24.5,13.3,30.22,N/A,-737280,0.0,0.0,62,0.00,,,0.00,Wunderground v.1.12,2013-02-06 14:50:00,
2013-02-06 10:00:00,26.6,14.2,30.21,N/A,-737280,0.0,0.0,59,0.00,,,0.00,Wunderground v.1.12,2013-02-06 15:00:00,
2013-02-06 10:10:00,27.6,13.9,30.21,NNW,344,0.0,0.0,56,0.00,,,0.00,Wunderground v.1.12,2013-02-06 15:10:00,
2013-02-06 10:20:00,28.4,14.7,30.22,NNW,344,0.0,0.0,56,0.00,,,0.00,Wunderground v.1.12,2013-02-06 15:20:00,
2013-02-06 10:30:00,29.4,14.8,30.23,N/A,-737280,0.0,0.0,54,0.00,,,0.01,Wunderground v.1.12,2013-02-06 15:30:00,
2013-02-06 10:40:00,29.8,14.3,30.23,NNE,18,1.0,2.0,52,0.00,,,0.00,Wunderground v.1.12,2013-02-06 15:40:00,
2013-02-06 10:50:00,30.1,15.0,30.23,NNE,18,0.0,0.0,53,0.00,,,0.01,Wunderground v.1.12,2013-02-06 15:50:00,
2013-02-06 11:00:00,30.4,14.9,30.24,N/A,-737280,0.0,0.0,52,0.01,,,0.01,Wunderground v.1.12,2013-02-06 16:00:00,
2013-02-06 11:10:00,30.3,14.3,30.24,North,1,0.0,0.0,51,0.00,,,0.01,Wunderground v.1.12,2013-02-06 16:10:00,
2013-02-06 11:20:00,30.3,15.2,30.24,North,0,0.0,5.0,53,0.01,,,0.01,Wunderground v.1.12,2013-02-06 16:20:00,
2013-02-06 11:30:00,30.9,14.9,30.24,NW,315,1.0,5.0,51,0.01,,,0.02,Wunderground v.1.12,2013-02-06 16:30:00,
2013-02-06 11:40:00,31.6,16.0,30.24,NW,315,0.0,0.0,52,0.00,,,0.01,Wunderground v.1.12,2013-02-06 16:40:00,
2013-02-06 11:50:00,32.1,15.5,30.23,NW,315,1.0,6.0,50,0.01,,,0.02,Wunderground v.1.12,2013-02-06 16:50:00,
2013-02-06 12:00:00,32.2,15.6,30.24,NNW,338,0.0,5.0,50,0.01,,,0.02,Wunderground v.1.12,2013-02-06 17:00:00,
2013-02-06 12:10:00,32.5,15.4,30.24,NW,309,1.0,1.0,49,0.00,,,0.02,Wunderground v.1.12,2013-02-06 17:10:00,
2013-02-06 12:20:00,32.8,15.7,30.23,WNW,291,1.0,1.0,49,0.00,,,0.03,Wunderground v.1.12,2013-02-06 17:20:00,
2013-02-06 12:30:00,32.2,14.7,30.23,WNW,293,1.0,7.0,48,0.02,,,0.03,Wunderground v.1.12,2013-02-06 17:30:00,
2013-02-06 12:40:00,32.4,14.9,30.23,WSW,237,1.0,1.0,48,0.00,,,0.03,Wunderground v.1.12,2013-02-06 17:40:00,
2013-02-06 12:50:00,33.1,15.0,30.23,WSW,257,1.0,1.0,47,0.00,,,0.03,Wunderground v.1.12,2013-02-06 17:50:00,
2013-02-06 13:00:00,32.9,14.8,30.23,WSW,248,1.0,6.0,47,0.02,,,0.04,Wunderground v.1.12,2013-02-06 18:00:00,
2013-02-06 13:10:00,32.7,15.6,30.23,SSW,202,1.0,2.0,49,0.00,,,0.04,Wunderground v.1.12,2013-02-06 18:10:00,
2013-02-06 13:20:00,32.5,15.4,30.24,SSW,203,1.0,6.0,49,0.02,,,0.04,Wunderground v.1.12,2013-02-06 18:20:00,
2013-02-06 13:30:00,33.4,15.8,30.24,West,270,1.0,6.0,48,0.01,,,0.04,Wunderground v.1.12,2013-02-06 18:30:00,
2013-02-06 13:40:00,34.0,15.4,30.24,SW,219,2.0,2.0,46,0.00,,,0.05,Wunderground v.1.12,2013-02-06 18:40:00,
2013-02-06 13:50:00,34.7,17.0,30.23,WSW,248,1.0,1.0,48,0.00,,,0.05,Wunderground v.1.12,2013-02-06 18:50:00,
2013-02-06 14:00:00,36.0,17.2,30.23,WSW,248,0.0,5.0,46,0.01,,,0.05,Wunderground v.1.12,2013-02-06 19:00:00,
2013-02-06 14:10:00,37.0,18.1,30.23,WNW,284,2.0,3.0,46,0.00,,,0.05,Wunderground v.1.12,2013-02-06 19:10:00,
2013-02-06 14:20:00,37.2,18.8,30.22,NW,318,2.0,3.0,47,0.00,,,0.06,Wunderground v.1.12,2013-02-06 19:20:00,
2013-02-06 14:30:00,37.6,17.6,30.21,NW,315,1.0,6.0,44,0.02,,,0.06,Wunderground v.1.12,2013-02-06 19:30:00,
2013-02-06 14:40:00,36.3,16.4,30.21,NE,38,1.0,1.0,44,0.00,,,0.06,Wunderground v.1.12,2013-02-06 19:40:00,
2013-02-06 14:50:00,37.2,16.7,30.21,NNW,335,1.0,1.0,43,0.00,,,0.07,Wunderground v.1.12,2013-02-06 19:50:00,
2013-02-06 15:00:00,37.8,18.3,30.21,NNW,338,0.0,3.0,45,0.02,,,0.07,Wunderground v.1.12,2013-02-06 20:00:00,
2013-02-06 15:10:00,37.3,17.4,30.21,NW,313,1.0,1.0,44,0.00,,,0.07,Wunderground v.1.12,2013-02-06 20:10:00,
2013-02-06 15:20:00,36.8,16.9,30.21,NW,315,1.0,6.0,44,0.02,,,0.07,Wunderground v.1.12,2013-02-06 20:20:00,
2013-02-06 15:30:00,36.9,18.5,30.22,NW,315,1.0,4.0,47,0.02,,,0.08,Wunderground v.1.12,2013-02-06 20:30:00,
2013-02-06 15:40:00,36.8,17.4,30.22,NNW,346,1.0,6.0,45,0.00,,,0.08,Wunderground v.1.12,2013-02-06 20:40:00,
2013-02-06 15:50:00,36.8,17.9,30.22,NNE,30,1.0,2.0,46,0.00,,,0.08,Wunderground v.1.12,2013-02-06 20:50:00,
2013-02-06 16:00:00,35.8,16.5,30.23,NNE,23,1.0,3.0,45,0.01,,,0.08,Wunderground v.1.12,2013-02-06 21:00:00,
2013-02-06 16:10:00,34.1,15.5,30.23,South,189,2.0,2.0,46,0.00,,,0.08,Wunderground v.1.12,2013-02-06 21:10:00,
2013-02-06 16:20:00,33.4,15.3,30.23,SSW,203,2.0,2.0,47,0.00,,,0.08,Wunderground v.1.12,2013-02-06 21:20:00,
2013-02-06 16:30:00,32.7,14.7,30.24,South,180,3.0,10.0,47,0.00,,,0.09,Wunderground v.1.12,2013-02-06 21:30:00,
2013-02-06 16:40:00,31.9,14.9,30.23,South,191,3.0,5.0,49,0.00,,,0.09,Wunderground v.1.12,2013-02-06 21:40:00,
2013-02-06 16:50:00,31.3,14.3,30.23,South,188,4.0,4.0,49,0.00,,,0.09,Wunderground v.1.12,2013-02-06 21:50:00,
2013-02-06 17:00:00,30.9,14.4,30.23,South,180,3.0,7.0,50,0.01,,,0.09,Wunderground v.1.12,2013-02-06 22:00:00,
2013-02-06 17:10:00,30.4,14.0,30.23,SW,217,4.0,10.0,50,0.00,,,0.09,Wunderground v.1.12,2013-02-06 22:10:00,
2013-02-06 17:20:00,29.7,13.3,30.24,SW,230,3.0,5.0,50,0.00,,,0.09,Wunderground v.1.12,2013-02-06 22:20:00,
2013-02-06 17:40:00,29.3,13.4,30.25,SSW,203,2.0,10.0,51,0.01,,,0.09,Wunderground v.1.12,2013-02-06 22:40:00,
2013-02-06 17:50:00,28.4,13.0,30.25,South,176,2.0,2.0,52,0.00,,,0.09,Wunderground v.1.12,2013-02-06 22:50:00,
2013-02-06 18:00:00,27.9,12.5,30.26,SSW,203,2.0,8.0,52,0.00,,,0.09,Wunderground v.1.12,2013-02-06 23:00:00,
2013-02-06 18:10:00,27.6,12.7,30.26,SW,223,1.0,1.0,53,0.00,,,0.09,Wunderground v.1.12,2013-02-06 23:10:00,
2013-02-06 18:20:00,27.5,12.6,30.26,SW,223,0.0,0.0,53,0.00,,,0.09,Wunderground v.1.12,2013-02-06 23:20:00,
2013-02-06 18:30:00,27.2,12.7,30.26,SW,225,0.0,3.0,54,0.00,,,0.09,Wunderground v.1.12,2013-02-06 23:30:00,
2013-02-06 18:40:00,27.0,13.0,30.27,SW,223,0.0,0.0,55,0.00,,,0.09,Wunderground v.1.12,2013-02-06 23:40:00,
2013-02-06 18:50:00,26.7,12.7,30.27,SW,223,0.0,0.0,55,0.00,,,0.09,Wunderground v.1.12,2013-02-06 23:50:00,
2013-02-06 19:00:00,26.6,13.0,30.27,SW,225,0.0,1.0,56,0.00,,,0.09,Wunderground v.1.12,2013-02-07 00:00:00,
2013-02-06 19:10:00,26.3,12.7,30.27,SW,223,0.0,0.0,56,0.00,,,0.09,Wunderground v.1.12,2013-02-07 00:10:00,
2013-02-06 19:20:00,25.8,13.0,30.27,SW,223,0.0,0.0,58,0.00,,,0.09,Wunderground v.1.12,2013-02-07 00:20:00,
2013-02-06 19:30:00,25.6,13.6,30.28,N/A,-737280,0.0,0.0,60,0.00,,,0.09,Wunderground v.1.12,2013-02-07 00:30:00,
2013-02-06 19:40:00,25.3,13.7,30.28,SW,223,0.0,0.0,61,0.00,,,0.09,Wunderground v.1.12,2013-02-07 00:40:00,
2013-02-06 19:50:00,24.8,13.2,30.28,SW,223,0.0,0.0,61,0.00,,,0.09,Wunderground v.1.12,2013-02-07 00:50:00,
2013-02-06 20:00:00,24.7,13.5,30.28,N/A,-737280,0.0,0.0,62,0.00,,,0.09,Wunderground v.1.12,2013-02-07 01:00:00,
2013-02-06 20:10:00,24.7,13.5,30.28,SW,223,0.0,0.0,62,0.00,,,0.09,Wunderground v.1.12,2013-02-07 01:10:00,
2013-02-06 20:20:00,24.7,13.9,30.27,SW,225,0.0,1.0,63,0.00,,,0.09,Wunderground v.1.12,2013-02-07 01:20:00,
2013-02-06 20:30:00,24.7,13.9,30.27,N/A,-737280,0.0,0.0,63,0.00,,,0.09,Wunderground v.1.12,2013-02-07 01:30:00,
2013-02-06 20:40:00,24.8,13.6,30.27,SW,223,0.0,0.0,62,0.00,,,0.09,Wunderground v.1.12,2013-02-07 01:40:00,
2013-02-06 20:50:00,24.8,14.0,30.27,SW,223,0.0,0.0,63,0.00,,,0.09,Wunderground v.1.12,2013-02-07 01:50:00,
2013-02-06 21:00:00,25.1,14.6,30.26,N/A,-737280,0.0,0.0,64,0.00,,,0.09,Wunderground v.1.12,2013-02-07 02:00:00,
2013-02-06 21:10:00,25.4,14.5,30.26,East,95,0.0,0.0,63,0.00,,,0.09,Wunderground v.1.12,2013-02-07 02:10:00,
2013-02-06 21:20:00,25.4,14.5,30.25,East,90,0.0,2.0,63,0.00,,,0.09,Wunderground v.1.12,2013-02-07 02:20:00,
2013-02-06 21:30:00,25.4,14.9,30.24,ESE,113,0.0,3.0,64,0.00,,,0.09,Wunderground v.1.12,2013-02-07 02:30:00,
2013-02-06 21:40:00,25.6,14.7,30.24,ESE,110,0.0,0.0,63,0.00,,,0.09,Wunderground v.1.12,2013-02-07 02:40:00,
2013-02-06 21:50:00,25.6,14.7,30.25,ESE,110,0.0,0.0,63,0.00,,,0.09,Wunderground v.1.12,2013-02-07 02:50:00,
2013-02-06 22:00:00,25.6,14.4,30.25,ESE,113,0.0,2.0,62,0.00,,,0.09,Wunderground v.1.12,2013-02-07 03:00:00,
2013-02-06 22:10:00,25.6,14.7,30.25,ESE,112,0.0,0.0,63,0.00,,,0.09,Wunderground v.1.12,2013-02-07 03:10:00,
2013-02-06 22:20:00,25.4,14.5,30.23,ESE,113,0.0,3.0,63,0.00,,,0.09,Wunderground v.1.12,2013-02-07 03:20:00,
2013-02-06 22:30:00,25.1,14.6,30.21,ESE,113,0.0,2.0,64,0.00,,,0.09,Wunderground v.1.12,2013-02-07 03:30:00,
2013-02-06 22:40:00,25.1,15.0,30.21,ESE,114,0.0,0.0,65,0.00,,,0.09,Wunderground v.1.12,2013-02-07 03:40:00,
2013-02-06 22:50:00,25.0,14.5,30.20,SE,143,1.0,1.0,64,0.00,,,0.09,Wunderground v.1.12,2013-02-07 03:50:00,
2013-02-06 23:00:00,25.0,14.9,30.20,SE,135,1.0,6.0,65,0.00,,,0.09,Wunderground v.1.12,2013-02-07 04:00:00,
2013-02-06 23:10:00,24.8,15.0,30.20,SE,130,1.0,1.0,66,0.00,,,0.09,Wunderground v.1.12,2013-02-07 04:10:00,
2013-02-06 23:20:00,24.7,14.9,30.19,SE,134,0.0,0.0,66,0.00,,,0.09,Wunderground v.1.12,2013-02-07 04:20:00,
2013-02-06 23:30:00,24.5,15.1,30.19,SE,135,0.0,2.0,67,0.00,,,0.09,Wunderground v.1.12,2013-02-07 04:30:00,
2013-02-06 23:40:00,24.4,15.0,30.19,SE,133,0.0,0.0,67,0.00,,,0.09,Wunderground v.1.12,2013-02-07 04:40:00,
2013-02-06 23:50:00,24.4,15.3,30.21,SE,133,0.0,0.0,68,0.00,,,0.09,Wunderground v.1.12,2013-02-07 04:50:00,